DELTA 1 DEB, 10208

Orbit data source: Space-Track

DELTA 1 DEB, 10208 is space debris in LEO originally from a launch on Thu, 14 Jul 1977 UTC launched from the Air Force Eastern Test Range (AFETR). Debris objects in space refer to the collection of defunct objects orbiting the Earth. Examples of debris include non-operational satellites, rocket bodies, and fragments generated from explosions, collisions, or faulty payload assembly.

Loading next visibility...
Identifier
10208, 1977-065AM
Orbit
LEO
Country
Flag of USUS
Related business
Manufacturer
Unknown
Mission
Spacecraft
Bus & Motor
Unknown
Mass
Unknown
Launch date (UTC)
1977-07-14 (49 years ago)
Launch vehicle
Unknown
Launch site
Air Force Eastern Test Range (AFETR)
Object type
Payload
Rocket body
Debris
Shape & HBR
Unknown shape, 0.2 m
Radar Cross Section
Medium (>0.1 m² and <1 m²)

Expand to show TLE details & history
Last TLE update: 2 days ago

TLE from 2 days ago
0 DELTA 1 DEB
1 10208U 77065AM  26171.28209329  .00005528  00000-0  64239-3 0  9995
2 10208  28.9356  18.2488 0316774 344.8892  14.2412 14.53550430446135
Epoch: 2026-06-20T06:46Z
TLE epoch observation values (Epoch: 2026-06-20T06:46:12.860Z)
Latitude
-0.00001°
Longitude
8.19623°
Altitude
495.183 km
Speed
7.735 km/s
True Right ascension
01h 12m 59s
True Declination
0° 00' 00"
Sunlit
Object was in daylight at epoch
Visualization orbit readout
Latitude
Unknown
Longitude
Unknown
Altitude
Unknown
Speed
Unknown
Apparent Right ascension
Unknown
Apparent Declination
Unknown
Sunlit
N/A
Visualization observer readout
Local Sidereal Time
05:35:29
Azimuth
Unknown
Elevation
Unknown
Doppler factor
Unknown
Orbital elements
Apogee altitude
942.908 km
Perigee altitude
493.327 km
Semi-major axis
7,096.255 km
Eccentricity
0.03168
Inclination
28.9356°
RAAN
18.2488°
Arg. of periapsis
344.8892°
True anomaly
15.16973°
Mean anomaly
14.2412°
Eccentric anomaly
14.70182°
Mean motion
3.63078 °/min
Orbital period
99.15 mins
BSTAR
0.00064239
Loading maneuver chart data...
Computing Atmospheric mass density...
Loading historical data...
Loading historical data...
Loading historical data...
Loading historical data...
Loading historical data...
Loading historical data...
Loading historical data...

Documentation

Showing up to 5 results
|